Location: 81360 Arifat, France
(43.7204°N, 2.3408°E)
Time: 19:28:56
(UTC+02:00)

GHALIB - Pass Details

Date: 07 June 2022
Orbit: 510 x 523 km, 97.6° (Epoch: 29 June)

Event Time Altitude Azimuth Distance (km) Brightness Sun altitude
Exits shadow 03:43:33 50° 206° (SSW) 667 ? -18.6°
Maximum altitude 03:44:17 63° 259° (WSW) 581 ? -18.5°
Drops below altitude 10° 03:48:03 10° 341° (NNW) 1,754 ? -18.2°
Sets 03:50:10 0° 345° (NNW) 2,644 ? -18.0°
